Date,TemperatureHighF,TemperatureAvgF,TemperatureLowF,DewpointHighF,DewpointAvgF,DewpointLowF,HumidityHigh,HumidityAvg,HumidityLow,PressureMaxIn,PressureMinIn,WindSpeedMaxMPH,WindSpeedAvgMPH,GustSpeedMaxMPH,PrecipitationSumIn
2013-1-1,76,59,45,60,53,44,98,84,56,30.24,30.02,4,1,10,0.00
2013-1-2,75,63,57,67,60,54,94,88,76,30.04,29.99,5,1,9,0.00
2013-1-4,57,52,47,52,49,45,95,88,80,30.34,30.27,6,2,7,0.00
2013-1-5,61,52,40,52,47,37,92,84,70,30.37,30.28,6,2,9,0.00
2013-1-6,62,55,51,56,53,49,96,91,78,30.28,30.14,4,1,7,0.36
2013-1-7,61,54,45,54,50,42,95,86,74,30.32,30.20,12,5,17,0.00
2013-1-8,68,60,57,63,58,54,97,92,83,30.31,30.21,9,4,11,0.09
2013-1-9,73,64,60,69,63,59,98,96,87,30.37,30.25,7,3,9,0.00
2013-1-10,77,67,60,69,64,59,98,93,72,30.38,30.28,8,2,12,0.00
2013-1-11,80,67,58,70,64,57,98,88,62,30.29,30.18,4,1,6,0.01
2013-1-12,81,69,58,70,64,57,98,86,55,30.23,30.12,6,1,8,0.00
2013-1-13,81,68,60,68,63,59,98,86,54,30.20,30.09,4,1,7,0.01
2013-1-14,82,69,58,68,63,56,98,83,57,30.21,30.12,4,1,7,0.00
2013-1-15,82,70,59,68,64,57,97,83,58,30.18,30.07,5,1,9,0.00
2013-1-16,82,71,64,68,64,61,95,80,55,30.11,29.99,3,1,6,0.00
2013-1-17,76,60,43,66,54,34,95,81,62,30.16,29.91,8,2,14,0.00
2013-1-18,56,50,42,46,42,34,84,72,62,30.43,30.16,16,8,22,0.00
2013-1-19,60,54,46,54,50,41,94,84,78,30.39,30.22,13,6,18,0.00
2013-1-20,74,59,48,54,51,46,96,78,46,30.24,30.09,6,1,8,0.00
2013-1-21,71,56,46,53,47,43,96,75,45,30.15,30.04,4,0,7,0.00
2013-1-22,63,51,43,43,35,29,75,57,28,30.32,30.11,6,2,8,0.01
2013-1-23,64,48,34,40,34,28,85,61,33,30.44,30.29,7,2,13,0.00
2013-1-24,72,58,47,54,47,39,88,67,46,30.31,30.19,13,4,15,0.00
2013-1-25,74,60,53,58,52,45,94,79,37,30.35,30.18,8,3,13,0.00
2013-1-26,76,64,54,61,56,50,95,78,55,30.25,30.16,8,3,11,0.00
2013-1-27,66,60,57,58,56,53,93,84,65,30.40,30.24,10,5,15,0.00
2013-1-28,74,64,54,64,59,52,96,86,67,30.39,30.28,9,3,11,0.00
2013-1-29,78,69,60,67,64,59,97,87,69,30.29,30.11,10,4,15,0.00
2013-1-30,83,74,56,66,64,54,92,73,54,30.13,29.79,20,9,26,0.05
2013-1-31,58,52,44,54,37,26,92,59,30,30.27,29.90,12,6,24,0.04
2013-2-1,63,50,38,38,33,29,73,53,31,30.35,30.25,11,4,18,0.00
2013-2-2,66,49,33,44,33,23,94,58,29,30.37,30.18,7,1,11,0.00
2013-2-3,66,53,40,43,34,28,95,54,25,30.20,30.05,9,3,17,0.00
2013-2-4,62,52,39,47,41,34,93,68,37,30.15,30.07,5,2,9,0.00
2013-2-5,71,57,43,52,47,41,94,71,42,30.13,30.01,7,1,11,0.00
2013-2-6,70,61,57,61,56,51,93,82,65,30.17,30.06,6,1,10,0.01
2013-2-7,77,67,60,65,62,56,96,85,56,30.13,29.83,11,4,20,0.01
2013-2-8,68,60,53,65,54,51,93,82,65,30.11,29.84,11,5,19,0.00
2013-2-9,63,54,46,53,47,41,95,79,50,30.29,30.10,11,3,17,0.00
2013-2-10,73,63,51,59,55,47,96,75,53,30.33,30.19,13,6,27,0.00
2013-2-11,81,70,64,65,62,59,89,76,54,30.21,30.07,11,5,16,0.00
2013-2-12,80,67,60,68,63,59,97,89,66,30.10,29.87,13,4,18,0.00
2013-2-13,77,71,59,73,64,49,92,80,49,29.95,29.80,10,6,18,0.24
2013-2-14,59,52,46,55,48,43,93,88,80,30.10,29.92,6,2,11,0.17
2013-2-15,64,50,39,50,44,38,95,82,56,30.13,30.00,6,2,11,0.00
2013-2-16,59,46,40,46,40,21,96,80,47,30.16,29.93,14,4,23,0.03
2013-2-17,52,40,30,26,18,7,79,45,17,30.38,30.16,9,4,16,0.00
2013-2-18,58,44,26,45,34,23,93,71,36,30.44,30.25,10,2,19,0.00
2013-2-19,77,62,42,61,52,40,95,73,44,30.26,30.01,15,6,27,0.01
2013-2-20,71,54,43,56,41,26,94,66,25,30.20,30.07,5,2,11,0.00
2013-2-21,70,55,42,58,47,39,94,76,38,30.18,30.07,7,2,17,0.00
2013-2-22,81,70,61,68,65,58,96,85,59,30.10,30.00,9,3,14,0.00
2013-2-23,83,71,62,68,65,60,97,82,52,30.00,29.85,13,5,21,0.41
2013-2-24,77,65,60,64,56,40,97,78,31,30.02,29.86,11,3,15,0.19
2013-2-25,67,62,58,66,60,56,97,94,80,30.00,29.82,14,7,22,3.77
2013-2-26,80,70,61,69,62,52,97,79,40,29.84,29.68,15,9,27,0.61
2013-2-27,69,60,53,54,46,41,83,64,40,29.99,29.83,12,5,24,0.00
2013-2-28,68,58,50,46,42,35,82,56,35,29.99,29.86,14,5,22,0.00
2013-3-1,59,52,46,38,36,34,68,55,42,30.03,29.92,8,5,15,0.00
2013-3-2,52,45,40,37,32,29,85,62,42,30.04,29.94,14,7,24,0.00
2013-3-3,46,40,35,32,29,26,83,65,48,30.15,30.01,14,5,25,0.00
2013-3-4,64,43,33,29,27,22,83,60,26,30.24,30.14,6,3,12,0.00
2013-3-5,76,61,43,59,46,37,84,61,30,30.20,29.89,14,7,22,0.00
2013-3-6,66,52,43,60,36,27,91,57,33,30.15,29.86,17,10,28,0.07
2013-3-7,65,48,35,44,37,30,94,69,37,30.25,30.15,7,2,10,0.00
2013-3-8,67,50,40,52,43,37,96,79,38,30.26,30.18,9,2,18,0.00
2013-3-9,66,53,41,53,46,40,97,80,51,30.31,30.20,8,2,17,0.01
2013-3-10,74,61,49,59,54,47,97,78,52,30.25,30.16,11,4,18,0.00
2013-3-11,74,66,55,61,57,53,96,76,52,30.17,29.91,11,5,20,0.00
2013-3-12,69,65,54,65,58,46,95,80,50,30.03,29.85,10,6,15,0.04
2013-3-13,70,59,48,47,36,30,81,47,24,30.20,30.03,11,5,20,0.00
2013-3-14,60,49,40,38,32,27,92,54,37,30.33,30.18,8,3,13,0.00
2013-3-15,75,55,38,48,39,31,95,61,27,30.30,30.13,7,2,11,0.00
2013-3-16,81,65,50,52,47,40,85,55,30,30.17,30.00,10,5,21,0.00
2013-3-17,77,64,49,57,49,41,92,61,28,30.14,30.00,11,3,16,0.00
2013-3-18,81,70,61,64,60,54,89,72,52,30.07,29.88,11,3,18,0.00
2013-3-19,80,69,61,64,58,53,86,69,44,30.03,29.88,13,4,30,0.00
2013-3-20,65,59,50,54,50,47,91,74,63,30.04,29.86,10,3,22,0.00
2013-3-21,66,53,43,48,34,22,93,54,19,29.97,29.87,12,4,19,0.00
2013-3-22,64,54,42,49,40,33,82,59,38,30.09,29.95,8,3,17,0.00
2013-3-23,71,61,54,66,58,49,98,91,80,30.02,29.81,12,3,19,2.01
2013-3-24,86,72,61,72,66,60,98,82,52,29.83,29.53,13,7,31,0.43
2013-3-25,70,58,49,61,37,24,82,47,24,30.04,29.62,17,9,25,0.00
2013-3-26,54,47,39,32,28,24,71,48,35,30.27,30.05,16,6,24,0.00
2013-3-27,61,47,35,40,32,28,88,59,32,30.32,30.22,8,3,15,0.00
2013-3-28,67,51,38,44,37,24,92,64,20,30.32,30.23,10,2,13,0.00
2013-3-29,74,56,42,48,42,33,95,66,24,30.35,30.23,10,2,17,0.00
2013-3-30,78,62,46,54,46,35,94,62,22,30.29,30.11,9,3,18,0.00
2013-3-31,82,69,57,57,52,46,80,57,41,30.15,29.98,11,6,18,0.00
2013-4-1,83,72,63,64,61,57,89,70,47,30.01,29.90,11,5,18,0.00
2013-4-2,75,66,56,59,50,41,90,63,30,30.14,29.99,9,3,18,0.00
2013-4-3,77,68,62,64,62,60,95,83,58,30.12,30.06,12,7,22,0.27
2013-4-4,78,70,64,70,66,63,96,85,69,30.09,29.86,12,6,20,0.20
2013-4-5,58,56,54,57,54,51,96,92,86,30.05,29.87,6,2,12,0.55
2013-4-6,68,59,48,57,53,46,95,82,59,30.20,30.05,12,4,26,0.01
2013-4-7,76,66,57,64,59,56,96,78,56,30.22,30.12,11,4,21,0.00
2013-4-8,79,68,56,68,60,54,97,79,48,30.18,30.11,11,4,17,0.00
2013-4-9,81,71,62,68,64,60,96,80,57,30.22,30.11,13,4,19,0.00
2013-4-10,79,71,61,68,64,59,93,80,65,30.17,30.02,13,5,21,0.00
2013-4-11,84,75,70,73,70,67,95,84,62,30.02,29.82,12,7,19,0.06
2013-4-12,89,78,72,74,70,66,94,78,49,29.89,29.76,17,8,25,0.10
2013-4-13,83,70,60,68,55,47,91,62,33,30.03,29.89,7,3,11,0.00
2013-4-14,74,65,58,65,61,56,96,89,68,30.04,29.88,13,3,22,1.27
2013-4-15,85,70,62,69,64,61,98,85,51,30.14,29.82,11,3,17,0.00
2013-4-16,80,71,65,71,66,64,98,87,67,30.21,30.11,10,4,15,0.00
2013-4-17,79,70,61,69,66,60,98,88,71,30.20,30.11,8,3,15,0.01
2013-4-18,82,73,64,70,67,62,98,83,59,30.12,30.00,13,5,21,0.00
2013-4-19,89,78,64,73,70,60,93,77,50,30.03,29.88,15,8,25,0.12
2013-4-20,63,63,62,60,60,60,93,91,90,30.04,30.02,5,4,12,0.07
2013-5-2,-200,0,200,-100,-100,-100,0,0,100,30.02,30.02,0,0,0,0.00
2013-5-4,69,67,66,68,66,65,97,96,94,29.82,29.74,22,16,45,0.59
2013-5-5,77,68,60,69,58,49,97,73,38,29.91,29.73,16,7,27,0.04
2013-5-6,73,65,55,59,51,45,85,63,39,30.00,29.87,9,1,15,0.00
2013-5-7,77,67,57,60,56,52,86,69,48,30.04,29.92,11,5,20,0.00
2013-5-8,81,70,57,65,58,55,95,70,43,30.12,30.01,9,3,16,0.00
2013-5-9,86,73,64,66,62,57,95,70,39,30.15,30.08,10,4,17,0.00
2013-5-10,88,76,62,70,64,60,93,70,40,30.15,30.01,11,4,21,0.00
2013-5-11,88,76,69,71,67,64,94,78,50,30.06,29.94,17,4,21,0.08
2013-5-12,84,74,67,69,65,58,95,75,53,30.05,29.94,11,6,20,0.00
2013-5-13,77,69,59,61,50,40,88,54,28,30.17,30.02,14,6,23,0.00
2013-5-14,79,66,52,56,47,38,84,55,26,30.26,30.17,12,4,19,0.00
2013-5-15,85,70,56,62,56,52,95,65,35,30.25,30.09,11,3,16,0.00
2013-5-16,87,74,66,68,64,60,87,70,41,30.15,30.04,11,5,19,0.00
2013-5-17,87,75,64,69,65,59,95,74,41,30.13,30.06,11,4,18,0.00
2013-5-18,85,76,69,72,69,64,93,80,55,30.15,30.05,14,6,22,0.10
2013-5-19,86,76,70,75,71,68,94,84,64,30.12,30.02,10,5,21,0.43
2013-5-20,85,76,70,73,71,68,95,85,63,30.12,30.03,9,4,14,0.11
2013-5-21,82,75,70,73,71,68,97,87,66,30.08,29.97,12,3,17,0.00
2013-5-22,80,74,68,74,71,67,97,89,75,30.02,29.93,10,3,15,0.11
2013-5-23,89,78,69,73,70,67,97,78,53,30.00,29.91,12,3,15,0.00
2013-5-24,88,78,70,71,63,54,95,63,34,30.13,29.95,15,6,23,0.00
2013-5-25,77,72,64,64,58,53,86,62,46,30.28,30.13,19,8,25,0.00
2013-5-26,83,71,59,64,57,50,95,64,36,30.26,30.17,14,4,21,0.00
2013-5-27,82,74,64,67,64,60,89,72,53,30.24,30.16,10,4,18,0.00
2013-5-28,82,76,66,69,66,64,92,73,60,30.21,30.14,12,6,21,0.00
2013-5-29,83,77,71,73,71,68,91,82,69,30.20,30.11,14,6,23,0.00
2013-5-30,84,78,73,74,72,69,93,82,66,30.20,30.11,16,8,27,0.06
2013-5-31,83,78,72,73,71,69,95,82,67,30.18,30.12,14,7,24,0.03
2013-6-1,84,78,75,74,72,69,91,81,66,30.13,30.05,13,7,22,0.00
2013-6-2,85,80,75,75,74,73,93,83,73,30.09,29.90,14,7,22,0.00
2013-6-3,93,80,74,76,74,71,94,81,54,29.97,29.86,17,4,26,0.01
2013-6-4,89,78,73,78,74,72,95,87,65,30.03,29.94,8,3,15,1.17
2013-6-5,86,77,73,74,72,71,96,86,63,30.03,29.95,12,3,20,0.02
2013-6-6,78,75,72,75,73,70,96,93,86,29.97,29.55,20,8,30,1.73
2013-6-7,89,79,71,75,72,69,97,79,57,29.93,29.55,20,9,29,0.03
2013-6-8,94,81,74,76,73,68,95,79,47,30.09,29.92,10,5,17,0.00
2013-6-9,87,78,74,77,74,71,93,86,68,30.14,30.05,12,4,21,0.09
2013-6-10,93,82,75,78,75,72,95,80,52,30.12,30.00,11,5,24,0.00
2013-6-11,92,83,76,76,74,70,93,75,50,30.09,30.00,7,3,12,0.00
2013-6-12,96,86,76,77,74,71,93,71,46,30.07,29.96,8,4,13,0.00
2013-6-13,96,87,79,78,76,71,88,71,52,30.01,29.85,10,5,15,0.02
2013-6-14,81,79,78,76,76,75,92,90,85,29.89,29.79,9,6,14,0.00
2013-7-1,86,85,84,76,75,75,75,73,71,29.93,29.92,10,9,12,0.00
2013-7-3,83,81,78,77,76,74,88,85,81,30.16,30.09,9,7,19,0.05
2013-7-4,87,80,74,77,74,71,94,83,70,30.20,30.12,17,7,28,0.02
2013-7-5,87,80,74,77,74,72,95,83,67,30.19,30.12,17,6,27,0.00
2013-7-6,87,81,76,76,75,73,93,82,69,30.17,30.09,16,7,27,0.00
2013-7-7,87,81,76,77,74,72,94,81,65,30.18,30.10,13,5,20,0.00
2013-7-8,88,81,73,77,74,72,96,82,64,30.20,30.12,11,4,18,0.00
2013-7-9,88,80,74,78,74,71,97,84,60,30.19,30.09,10,3,18,0.00
2013-7-10,88,80,72,76,73,71,97,80,61,30.13,29.98,13,4,20,0.00
2013-7-11,94,82,75,77,74,72,93,79,50,30.04,29.89,14,5,24,0.30
2013-7-12,90,80,75,77,74,71,94,85,61,29.95,29.89,11,3,22,0.50
2013-7-13,85,77,71,76,74,70,96,90,74,30.03,29.91,10,2,18,0.22
2013-7-14,85,77,71,75,73,70,97,86,71,30.16,30.00,14,5,22,0.00
2013-7-15,85,78,72,78,74,71,97,88,75,30.19,30.10,19,6,28,0.27
2013-7-16,86,80,75,77,75,74,96,86,69,30.23,30.17,15,6,26,0.00
2013-7-17,86,80,75,77,75,72,97,84,63,30.23,30.12,15,5,18,0.00
2013-7-18,87,80,72,77,74,71,97,83,63,30.16,30.07,10,3,16,0.00
2013-7-19,92,80,75,76,73,71,93,82,51,30.14,30.05,12,4,18,0.19
2013-7-20,90,77,72,76,72,70,95,85,62,30.11,30.03,15,4,22,0.35
2013-7-21,91,79,73,77,73,71,95,84,58,30.12,30.03,15,4,18,0.08
2013-7-22,91,79,73,77,75,68,97,87,58,30.12,30.03,19,5,34,1.09
2013-7-23,91,80,75,78,74,72,93,84,63,30.04,29.91,15,6,25,0.00
2013-7-24,87,80,73,77,74,70,93,83,69,29.92,29.80,10,6,18,0.02
2013-7-25,90,80,73,78,74,71,94,82,61,29.97,29.83,8,4,13,0.00
2013-7-26,89,81,75,78,76,73,97,85,63,30.04,29.95,10,3,16,0.00
2013-7-27,94,80,75,79,76,72,96,86,58,30.03,29.90,13,2,14,0.77
2013-7-28,92,79,74,76,74,72,96,85,59,30.07,29.93,17,4,24,0.01
2013-7-29,95,82,74,78,74,71,93,78,49,30.17,30.04,11,4,19,0.00
2013-7-30,94,74,78,80,57,-100,92,72,57,30.19,30.11,8,-102,11,0.12
2013-7-31,93,70,73,79,53,-100,97,76,60,30.14,30.05,21,-125,40,0.88
2013-8-1,94,65,72,78,46,-100,97,74,57,30.06,29.95,15,-157,31,1.78
2013-8-2,93,73,74,78,54,-100,97,70,53,30.05,29.95,13,-112,21,0.00
2013-8-3,90,73,75,80,60,-100,96,80,66,30.07,29.99,17,-89,23,0.25
2013-8-4,94,75,77,81,55,-100,95,67,52,30.06,29.94,9,-112,19,0.00
2013-8-5,94,74,78,79,55,-100,93,70,55,30.01,29.92,15,-122,20,0.00
2013-8-6,88,73,78,79,56,-100,97,74,71,30.01,29.92,12,-114,18,0.00
2013-8-7,87,69,77,79,48,-100,94,71,73,30.03,29.96,16,-157,23,0.00
2013-8-8,90,73,79,79,54,-100,95,69,62,30.08,29.98,13,-127,19,0.00
2013-8-9,90,73,79,79,54,-100,93,69,61,30.11,30.00,11,-124,18,0.00
2013-8-10,92,75,77,78,57,-100,95,71,54,30.16,30.06,12,-103,19,0.32
2013-8-11,96,74,79,78,52,-100,93,64,54,30.16,30.07,12,-137,16,0.00
2013-8-12,96,73,78,79,50,-100,90,63,53,30.13,30.01,9,-145,15,0.51
2013-8-13,96,74,77,78,48,-100,95,58,43,30.04,29.90,8,-150,12,0.00
2013-8-14,96,74,73,80,55,-100,92,68,52,30.02,29.87,18,-114,23,0.39
2013-8-15,95,68,72,79,47,-100,100,70,53,30.06,29.92,14,-155,33,0.93
2013-8-16,84,48,73,77,8,-100,97,55,75,30.06,29.99,8,-382,13,0.00
2013-8-18,80,80,80,78,78,77,95,93,92,30.13,30.11,2,0,5,0.02
2013-8-19,91,71,78,80,50,-100,96,68,59,30.13,29.99,11,-150,20,0.00
2013-8-20,90,71,74,80,50,-100,96,69,66,30.15,30.03,11,-144,20,0.00
2013-8-21,88,70,75,80,52,-100,96,74,72,30.19,30.10,13,-138,21,0.20
2013-8-22,81,69,74,78,56,-100,97,82,81,30.17,30.04,20,-103,22,0.26
2013-8-23,86,67,74,79,50,-100,98,78,73,30.07,30.01,10,-147,14,0.06
2013-8-24,84,65,73,77,44,-100,98,72,76,30.16,30.03,15,-169,21,0.00
2013-8-25,84,66,73,77,46,-100,98,74,78,30.22,30.14,28,-150,37,0.15
2013-8-26,84,68,76,77,50,-100,93,72,72,30.21,30.10,20,-131,27,0.00
2013-8-27,86,64,74,76,36,-100,94,61,53,30.12,30.04,13,-198,17,0.00
2013-9-3,93,87,78,78,76,74,91,72,56,30.01,29.89,8,4,14,0.00
2013-9-4,97,72,78,79,49,-100,93,64,47,30.10,29.98,12,-150,18,0.00
2013-9-5,95,77,72,78,67,-100,95,80,52,30.11,30.01,21,-47,26,0.48
2013-9-6,88,66,74,79,46,-100,97,72,69,30.07,29.99,16,-169,22,0.00
2013-9-7,86,63,72,76,35,-100,97,62,62,30.06,29.97,17,-213,25,0.00
2013-9-8,86,82,76,73,70,67,86,68,55,30.00,29.93,15,5,19,0.00
2013-9-9,87,72,71,75,56,-100,95,70,57,30.09,29.98,12,-89,19,0.00
2013-9-10,86,69,74,74,46,-100,92,64,62,30.17,30.06,20,-142,29,0.00
2013-9-11,87,69,73,77,49,-100,96,70,65,30.15,30.06,18,-131,26,0.00
2013-9-12,87,80,74,75,74,72,95,81,62,30.07,29.92,11,3,16,0.00
2013-9-13,83,49,74,75,12,-100,96,58,76,29.93,29.87,4,-355,8,0.00
2013-9-20,84,79,71,72,70,67,93,75,60,30.07,29.95,12,6,16,0.00
2013-9-21,90,66,69,75,42,-100,96,63,52,29.97,29.77,10,-167,14,0.00
2013-9-23,82,78,76,76,74,73,95,88,78,29.98,29.92,12,4,14,0.00
2013-9-24,80,60,73,76,37,-100,98,74,85,29.98,29.85,16,-210,20,1.62
2013-9-30,78,75,70,68,65,62,84,73,62,30.07,29.99,19,9,22,0.00
2013-10-1,71,31,68,66,-27,-100,91,38,82,30.09,30.03,6,-560,6,0.00
2013-10-2,79,60,64,70,39,-100,98,69,66,30.13,30.07,15,5,0,0.00
2013-10-3,81,63,67,74,43,-100,97,74,77,30.12,30.05,15,5,0,0.00
2013-10-4,85,63,72,77,41,-100,100,71,71,30.13,30.05,15,4,0,0.00
2013-10-5,82,63,71,76,42,-100,97,73,74,30.11,30.03,15,6,0,0.00
2013-10-6,85,64,72,79,42,-100,97,71,75,30.03,29.89,9,3,0,0.40
2013-10-7,90,65,74,77,44,-100,94,71,60,29.89,29.77,10,3,0,0.13
2013-10-8,79,56,65,75,34,-100,98,74,87,30.04,29.80,22,10,30,0.10
2013-10-9,75,49,60,68,20,-100,98,67,76,30.12,30.02,14,-257,24,0.00
2013-10-10,82,59,62,66,36,-100,97,65,52,30.10,29.99,10,-169,18,0.00
2013-10-11,84,59,63,66,32,-100,96,60,45,30.07,29.94,10,-189,17,0.00
2013-10-12,85,72,61,66,62,58,95,75,43,30.06,29.98,9,2,17,0.00
2013-10-13,84,72,64,70,65,61,96,81,50,30.11,30.03,20,5,26,0.00
2013-10-14,76,70,65,70,67,64,97,90,77,30.10,30.02,22,10,29,0.00
2013-10-15,71,69,67,68,67,66,98,94,88,30.04,29.97,23,13,27,0.08
2013-10-16,79,71,64,72,68,63,97,89,75,30.01,29.94,13,6,18,0.00
2013-10-17,88,75,65,74,69,64,98,84,55,30.00,29.90,10,2,11,0.00
2013-10-18,89,77,69,75,72,68,96,84,57,30.01,29.91,9,3,13,0.00
2013-10-19,88,78,72,76,73,70,96,86,61,29.97,29.87,8,3,11,0.08
2013-10-20,76,70,66,71,65,61,97,84,70,30.03,29.91,16,8,21,0.00
2013-10-21,77,73,68,74,70,66,97,92,87,30.06,29.97,19,8,24,0.00
2013-10-22,77,73,68,74,71,68,97,95,91,30.00,29.83,14,6,20,0.32
2013-10-23,75,66,58,67,58,49,98,76,43,30.06,29.83,16,6,22,0.11
2013-10-24,59,54,50,50,46,43,80,75,70,30.21,30.06,11,6,17,0.00
2013-10-25,70,62,54,51,49,47,81,64,48,30.30,30.20,10,7,13,0.00
2013-10-26,68,58,49,58,52,47,96,83,64,30.29,30.16,15,5,21,0.00
2013-10-27,73,59,48,53,49,43,96,75,37,30.19,30.12,8,2,14,0.01
2013-10-28,75,62,52,61,56,50,96,83,59,30.25,30.14,11,3,16,0.00
2013-10-29,73,61,58,68,60,56,97,95,82,30.31,30.22,16,3,21,0.01
2013-10-30,76,70,62,69,65,61,97,83,70,30.29,30.20,20,7,26,0.01
2013-10-31,83,72,65,73,67,62,98,85,60,30.20,30.00,11,3,16,0.00
2013-11-1,79,74,71,72,70,68,93,87,73,30.02,29.83,10,6,17,0.00
2013-11-2,76,67,57,73,63,56,97,88,59,29.99,29.80,15,4,20,0.80
2013-11-3,68,60,50,57,51,48,95,73,50,30.23,29.98,23,11,36,0.00
2013-11-4,72,63,54,64,56,50,96,80,62,30.29,30.21,27,8,43,0.04
2013-11-5,66,65,64,64,64,62,97,96,94,30.28,30.21,0,0,0,0.03
2013-11-7,80,72,66,68,66,64,98,84,63,30.09,29.98,0,0,0,0.00
2013-11-8,69,59,50,63,51,45,86,73,65,30.24,30.05,0,0,0,0.00
2013-11-9,72,64,54,63,57,51,92,79,71,30.27,30.19,0,0,0,0.00
2013-11-11,73,67,57,64,62,55,96,83,65,30.23,30.15,0,0,1,0.01
2013-11-12,73,66,60,64,59,48,97,80,52,30.18,30.04,0,0,0,0.00
2013-11-13,59,49,43,48,40,36,82,72,61,30.45,30.18,0,0,0,0.00
2013-11-14,63,53,42,58,49,37,96,87,79,30.41,30.25,0,0,0,0.00
2013-11-15,67,62,58,65,61,56,97,95,92,30.26,30.09,0,0,0,0.05
2013-11-16,74,67,61,68,64,60,98,93,72,30.21,30.12,0,0,0,0.00
2013-11-17,80,71,66,73,69,65,98,93,80,30.14,30.02,0,0,0,0.08
2013-11-18,79,72,69,74,70,68,97,94,82,30.05,29.91,0,0,0,0.29
2013-11-19,71,62,53,70,55,46,97,78,64,30.07,29.93,0,0,0,0.00
2013-11-20,69,63,60,64,60,57,98,91,81,30.22,30.05,0,0,0,0.01
2013-11-21,70,65,62,66,63,61,98,95,88,30.28,30.18,0,0,0,0.01
2013-11-22,77,68,63,70,65,62,98,91,70,30.28,30.16,0,0,0,0.09
2013-11-23,81,69,59,68,64,58,98,85,53,30.16,30.02,0,0,0,0.01
2013-11-24,64,56,51,60,47,39,91,74,59,30.39,30.10,0,0,0,0.00
2013-11-25,67,60,54,61,55,45,96,83,71,30.37,30.13,0,0,0,0.00
2013-11-26,77,71,66,72,68,61,97,90,81,30.14,29.71,0,0,0,0.90
2013-11-27,71,54,38,70,50,33,97,84,70,30.25,29.62,0,0,0,0.08
2013-11-28,54,42,31,45,37,28,90,82,69,30.44,30.25,0,0,0,0.00
2013-11-29,59,51,41,51,46,38,91,82,66,30.47,30.40,0,0,0,0.00
2013-11-30,58,55,53,55,52,49,95,92,83,30.42,30.26,0,0,0,0.00
2013-12-1,66,57,51,60,54,49,97,90,80,30.26,30.02,0,0,0,0.00
2013-12-2,67,57,51,57,54,49,97,90,67,30.01,29.85,0,0,0,0.00
2013-12-3,74,60,50,61,56,48,98,86,62,29.99,29.90,0,0,0,0.01
2013-12-4,64,61,59,63,59,57,97,94,91,30.06,29.97,0,0,0,0.00
2013-12-5,83,71,62,70,65,61,97,83,57,30.19,30.09,8,2,11,0.02
2013-12-6,83,73,66,70,67,64,96,84,60,30.18,30.11,10,4,15,0.00
2013-12-7,84,72,67,72,68,65,98,87,62,30.24,30.15,9,4,12,0.00
2013-12-8,69,63,62,66,62,61,99,97,91,30.28,30.18,15,8,23,0.00
2013-12-9,83,70,62,71,66,61,99,89,62,30.21,30.08,10,3,15,0.01
2013-12-10,79,68,52,71,64,44,95,87,69,30.28,30.04,14,7,20,0.17
2013-12-11,64,55,46,59,51,43,91,85,73,30.33,30.25,23,11,30,0.00
2013-12-12,63,54,43,50,41,27,95,66,26,30.40,30.26,15,6,22,0.00
2013-12-13,64,53,42,56,49,40,97,87,74,30.36,30.16,22,7,28,0.00
2013-12-14,78,66,54,69,63,53,98,92,74,30.16,29.88,15,5,29,0.67
2013-12-15,68,59,47,66,56,43,98,90,79,30.18,29.86,18,5,33,0.32
2013-12-16,58,46,36,47,41,35,97,83,55,30.28,30.17,11,3,15,0.00
2013-12-17,67,51,40,43,39,36,97,69,34,30.30,30.18,10,3,16,0.00
2013-12-18,62,52,42,43,37,28,96,63,28,30.33,30.25,13,4,21,0.00
2013-12-19,69,53,38,58,49,37,97,87,66,30.33,30.23,11,2,17,0.00
2013-12-20,74,60,48,63,57,47,98,89,67,30.25,30.16,10,2,12,0.01
2013-12-21,83,72,64,70,67,62,95,84,56,30.17,30.05,11,6,16,0.00
2013-12-22,83,75,70,72,70,68,97,86,67,30.15,30.08,13,6,22,0.00
2013-12-23,82,73,59,71,69,57,95,87,68,30.17,30.07,16,6,23,0.01
2013-12-24,59,53,43,57,44,34,95,72,42,30.34,30.14,18,9,26,0.00
2013-12-25,58,49,38,53,45,33,92,87,72,30.33,30.26,28,3,34,0.00
2013-12-26,55,51,47,51,48,44,94,88,84,30.31,30.20,0,0,0,0.00
2013-12-27,58,54,51,54,51,48,93,91,86,30.35,30.24,0,0,0,0.00
2013-12-29,71,64,57,64,59,55,91,86,80,30.03,29.92,0,0,0,1.04
2013-12-30,73,57,47,60,52,46,95,85,60,30.19,30.03,0,0,20,0.01
2014-1-1,54,54,54,50,50,50,89,89,89,30.30,30.30,0,0,0,0.00